sat.trackr.live / text

‹ back to catalog

STARLINK-34038

NORAD 63911 · 2025-095X

PAYLOAD ACTIVE UNKNOWN

§ Identity

Operator
Country
US
Launch date
2025-05-10
Launch site
AFETR
Launch vehicle
Mass (kg)
RCS (m²)

Purposes: comms

External: N2YO · Heavens-Above · Gunter

§ Orbital elements

Epoch: 2026-05-25T04:00:03.445056Z

Period
94.27 min
Inclination
43.0005°
Eccentricity
0.0001388
Mean motion
15.27596408 rev/d
Perigee alt
482.0 km
Apogee alt
484.0 km
Semi-major
6,861.1 km
B*
5.7563e-4
RAAN
104.3407°
Arg perigee
273.6195°
Mean anomaly
86.4498°
Rev number
5,947

§ Raw data

STARLINK-340381 63911U 25095X   26145.16670654  .00015619  00000+0  57563-3 0  99942 63911  43.0005 104.3407 0001388 273.6195  86.4498 15.27596408 59477

JSON: /api/v1/satellites/63911 · /tle

For live sub-satellite position, see the globe view (requires WebGL).

§ Visibility from observer

Set your observer location to see the next 7 days of passes ≥ 10°. The values pass through the URL so the page stays shareable.

No JS? Fill the form by hand. The geolocation button needs JavaScript.